Location: Igon
(43.1667°N, 0.2333°W)
Time: 22:04:40
(UTC+00:00)

Cosmos 1862 - Pass Details

Date: 29 November 2020
Orbit: 537 x 556 km, 82.5° (Epoch: 18 January)

Event Time Altitude Azimuth Distance (km) Brightness Sun altitude
Rises 05:19:13 0° 176° (S) 2,722 7.1 -19.9°
Reaches altitude 10° 05:21:24 10° 171° (S) 1,834 6.2 -19.5°
Maximum altitude 05:25:20 54° 95° (E) 683 4.1 -18.8°
Drops below altitude 10° 05:29:19 10° 17° (NNE) 1,851 6.1 -18.1°
Sets 05:31:32 0° 13° (NNE) 2,750 6.9 -17.7°
